Ketchikan, AK

7:52 PM AKST on November 22, 2017 (GMT -0900)
Ketchikan International

Weather History for PAKT - February, 2013

Change the Weather History Date:

Sunday, February 24, 2013

  Actual Average Record
Temperature  
Mean Temperature 36 °F -  
Max Temperature 42 °F 42 °F 55 °F (1964)
Min Temperature 30 °F 31 °F 8 °F (1957)
Degree Days  
Heating Degree Days 29    
Moisture  
Dew Point 35 °F    
Average Humidity 97    
Maximum Humidity 100    
Minimum Humidity 77    
Precipitation  
Precipitation 0.01 in - - ()
Sea Level Pressure  
Sea Level Pressure 29.83 in    
Wind  
Wind Speed 3 mph (South)    
Max Wind Speed 10 mph    
Max Gust Speed -    
Visibility 10 miles    
Events Rain    
Averages and records for this station are not official NWS values.
T = Trace of Precipitation, MM = Missing Value Source: NWS Daily Summary

Daily Weather History Graph

Daily Weather History Graph

Search for Another Location

Airport or City:

Trip Planner

Search our weather history database for the weather conditions in past years. The results will help you decide how hot, cold, wet, or windy it might be!

Date:

Astronomy

Feb. 24, 2013 Rise Set
Actual Time 6:48 AM AKST 5:12 PM AKST
Civil Twilight 6:11 AM AKST 5:49 PM AKST
Nautical Twilight 5:29 AM AKST 6:32 PM AKST
Astronomical Twilight 4:46 AM AKST 7:14 PM AKST
Moon 4:32 PM AKST (2/24) 5:52 AM AKST (2/24)
Length of Visible Light 11h 38m
Length of Day
10h 24m
Waxing Gibbous, 99% of the Moon is Illuminated
Feb 24
Waxing Gibbous
Feb 25
Full
Mar 4
Last Quarter
Mar 11
New
Mar 19
First Quarter

Hourly Weather History & Observations

Time (AKST) Temp. Windchill Dew Point Humidity Pressure Visibility Wind Dir Wind Speed Gust Speed Precip Events Conditions
12:17 AM 37.4 °F - 37.4 °F 100% 29.75 in 4.0 mi Calm Calm - 0.01 in   Overcast
12:53 AM 37.0 °F 34.5 °F 37.0 °F 100% 29.75 in 10.0 mi South 3.5 mph - 0.01 in   Overcast
1:53 AM 37.0 °F - 37.0 °F 100% 29.77 in 10.0 mi Calm Calm - 0.00 in Rain Light Rain
2:01 AM 37.4 °F - 37.4 °F 100% 29.77 in 10.0 mi Calm Calm - 0.00 in   Overcast
2:22 AM 37.4 °F - 37.4 °F 100% 29.77 in 10.0 mi Calm Calm - 0.00 in   Overcast
3:53 AM 36.0 °F 32.1 °F 36.0 °F 100% 29.79 in 10.0 mi NW 4.6 mph - N/A   Overcast
4:53 AM 34.0 °F - 34.0 °F 100% 29.81 in 10.0 mi Calm Calm - N/A   Scattered Clouds
5:53 AM 34.0 °F 29.8 °F 34.0 °F 100% 29.82 in 10.0 mi Variable 4.6 mph - N/A   Overcast
5:57 AM 35.6 °F 31.7 °F 35.6 °F 100% 29.82 in 10.0 mi ESE 4.6 mph - N/A   Overcast
6:53 AM 35.1 °F 31.0 °F 35.1 °F 100% 29.83 in 10.0 mi SSE 4.6 mph - N/A   Mostly Cloudy
7:53 AM 34.0 °F 29.8 °F 34.0 °F 100% 29.85 in 10.0 mi SE 4.6 mph - N/A   Mostly Cloudy
8:53 AM 36.0 °F 31.1 °F 36.0 °F 100% 29.87 in 10.0 mi SE 5.8 mph - 0.00 in Rain Light Rain
9:53 AM 37.0 °F 33.3 °F 37.0 °F 100% 29.87 in 10.0 mi SE 4.6 mph - 0.00 in   Mostly Cloudy
10:53 AM 39.9 °F 35.8 °F 37.0 °F 89% 29.87 in 10.0 mi ESE 5.8 mph - N/A   Mostly Cloudy
11:53 AM 39.9 °F - 37.0 °F 89% 29.86 in 10.0 mi Calm Calm - N/A   Mostly Cloudy
12:53 PM 42.1 °F 38.4 °F 37.0 °F 82% 29.86 in 10.0 mi Variable 5.8 mph - N/A   Mostly Cloudy
1:53 PM 41.0 °F 36.4 °F 37.9 °F 89% 29.87 in 10.0 mi ESE 6.9 mph - N/A   Mostly Cloudy
2:53 PM 39.9 °F 37.8 °F 33.1 °F 77% 29.87 in 10.0 mi SE 3.5 mph - N/A   Partly Cloudy
3:53 PM 39.0 °F 36.8 °F 36.0 °F 89% 29.85 in 10.0 mi WNW 3.5 mph - N/A   Clear
4:53 PM 37.0 °F 34.5 °F 34.0 °F 89% 29.85 in 10.0 mi WNW 3.5 mph - N/A   Clear
5:53 PM 34.0 °F - 33.1 °F 96% 29.85 in 10.0 mi Calm Calm - N/A   Clear
6:53 PM 33.1 °F - 33.1 °F 100% 29.85 in 10.0 mi Calm Calm - N/A   Clear
7:53 PM 33.1 °F - 33.1 °F 100% 29.86 in 10.0 mi Calm Calm - N/A   Clear
8:53 PM 30.0 °F - 30.0 °F 100% 29.86 in 10.0 mi Calm Calm - N/A   Clear
9:53 PM 30.9 °F 26.2 °F 30.9 °F 100% 29.86 in 10.0 mi WNW 4.6 mph - N/A   Clear
10:53 PM 32.0 °F 25.6 °F 32.0 °F 100% 29.86 in 10.0 mi NW 6.9 mph - N/A   Scattered Clouds
11:00 PM 33.8 °F 26.4 °F 33.8 °F 100% 29.85 in 10.0 mi NNW 9.2 mph - N/A   Mostly Cloudy
11:12 PM 33.8 °F 25.8 °F 33.8 °F 100% 29.85 in 10.0 mi NNW 10.4 mph - N/A   Overcast
11:53 PM 34.0 °F 31.0 °F 34.0 °F 100% 29.86 in 10.0 mi NW 3.5 mph - N/A   Overcast